TimeEDT,TemperatureF,Dew PointF,Humidity,Sea Level PressureIn,VisibilityMPH,Wind Direction,Wind SpeedMPH,Gust SpeedMPH,PrecipitationIn,Events,Conditions,WindDirDegrees,DateUTC
12:15 AM,71.6,71.6,100,30.12,10.0,Calm,Calm,-,N/A,,Clear,0,2013-07-10 04:15:00
12:35 AM,71.6,71.6,100,30.13,10.0,Calm,Calm,-,N/A,,Clear,0,2013-07-10 04:35:00
12:55 AM,69.8,69.8,100,30.12,10.0,Calm,Calm,-,N/A,,Clear,0,2013-07-10 04:55:00
1:15 AM,69.8,69.8,100,30.12,10.0,Calm,Calm,-,N/A,,Clear,0,2013-07-10 05:15:00
1:35 AM,68.0,68.0,100,30.12,10.0,Calm,Calm,-,N/A,,Clear,0,2013-07-10 05:35:00
1:55 AM,69.8,69.8,100,30.11,10.0,Calm,Calm,-,N/A,,Clear,0,2013-07-10 05:55:00
2:15 AM,68.0,68.0,100,30.11,9.0,Calm,Calm,-,N/A,,Clear,0,2013-07-10 06:15:00
2:35 AM,68.0,68.0,100,30.10,7.0,Calm,Calm,-,N/A,,Clear,0,2013-07-10 06:35:00
2:55 AM,68.0,68.0,100,30.10,8.0,Calm,Calm,-,N/A,,Clear,0,2013-07-10 06:55:00
3:15 AM,68.0,68.0,100,30.10,9.0,Calm,Calm,-,N/A,,Clear,0,2013-07-10 07:15:00
3:55 AM,68.0,68.0,100,30.10,5.0,Calm,Calm,-,N/A,,Clear,0,2013-07-10 07:55:00
4:15 AM,68.0,68.0,100,30.10,5.0,Calm,Calm,-,N/A,,Clear,0,2013-07-10 08:15:00
4:35 AM,66.2,66.2,100,30.10,7.0,Calm,Calm,-,N/A,,Clear,0,2013-07-10 08:35:00
4:55 AM,68.0,68.0,100,30.10,8.0,Calm,Calm,-,N/A,,Clear,0,2013-07-10 08:55:00
5:15 AM,66.2,66.2,100,30.09,6.0,Calm,Calm,-,N/A,,Clear,0,2013-07-10 09:15:00
5:35 AM,66.2,66.2,100,30.09,7.0,Calm,Calm,-,N/A,,Clear,0,2013-07-10 09:35:00
5:55 AM,66.2,66.2,100,30.09,10.0,Calm,Calm,-,N/A,,Clear,0,2013-07-10 09:55:00
6:15 AM,66.2,66.2,100,30.09,5.0,Calm,Calm,-,N/A,,Scattered Clouds,0,2013-07-10 10:15:00
6:35 AM,66.2,66.2,100,30.09,8.0,Calm,Calm,-,N/A,,Scattered Clouds,0,2013-07-10 10:35:00
6:50 AM,68.0,68.0,100,30.09,7.0,Calm,Calm,-,N/A,,Scattered Clouds,0,2013-07-10 10:50:00
7:50 AM,71.6,71.6,100,30.10,7.0,Calm,Calm,-,N/A,,Clear,0,2013-07-10 11:50:00
8:50 AM,77.0,75.2,94,30.11,7.0,Calm,Calm,-,N/A,,Scattered Clouds,0,2013-07-10 12:50:00
9:50 AM,80.6,73.4,79,30.11,7.0,SE,8.1,-,N/A,,Mostly Cloudy,140,2013-07-10 13:50:00
10:50 AM,84.2,71.6,66,30.11,7.0,Variable,3.5,-,N/A,,Scattered Clouds,0,2013-07-10 14:50:00
11:50 AM,86.0,71.6,62,30.11,7.0,SSE,4.6,-,N/A,,Mostly Cloudy,160,2013-07-10 15:50:00
12:50 PM,89.6,71.6,55,30.09,7.0,Variable,4.6,-,N/A,,Mostly Cloudy,0,2013-07-10 16:50:00
1:50 PM,89.6,71.6,55,30.06,10.0,South,4.6,-,N/A,,Scattered Clouds,190,2013-07-10 17:50:00
2:50 PM,89.6,71.6,55,30.03,10.0,Variable,5.8,-,N/A,,Scattered Clouds,0,2013-07-10 18:50:00
3:50 PM,91.4,71.6,52,30.01,10.0,South,5.8,-,N/A,,Mostly Cloudy,180,2013-07-10 19:50:00
4:50 PM,87.8,71.6,58,30.01,10.0,SSE,6.9,-,N/A,,Mostly Cloudy,150,2013-07-10 20:50:00
5:50 PM,86.0,73.4,66,30.00,10.0,East,8.1,-,N/A,,Mostly Cloudy,80,2013-07-10 21:50:00
6:50 PM,84.2,73.4,70,29.98,10.0,East,8.1,-,N/A,,Scattered Clouds,100,2013-07-10 22:50:00
7:50 PM,84.2,71.6,66,29.99,10.0,ESE,5.8,-,N/A,,Partly Cloudy,120,2013-07-10 23:50:00
8:15 PM,80.6,73.4,79,29.99,10.0,Calm,Calm,-,N/A,,Clear,0,2013-07-11 00:15:00
8:35 PM,80.6,73.4,79,30.00,10.0,Calm,Calm,-,N/A,,Clear,0,2013-07-11 00:35:00
8:55 PM,77.0,73.4,89,30.00,10.0,Calm,Calm,-,N/A,,Partly Cloudy,0,2013-07-11 00:55:00
9:15 PM,78.8,73.4,83,30.01,10.0,Calm,Calm,-,N/A,,Partly Cloudy,0,2013-07-11 01:15:00
9:35 PM,78.8,73.4,83,30.02,10.0,Calm,Calm,-,N/A,,Partly Cloudy,0,2013-07-11 01:35:00
9:55 PM,78.8,73.4,83,30.02,10.0,Calm,Calm,-,N/A,,Scattered Clouds,0,2013-07-11 01:55:00
10:15 PM,78.8,73.4,83,30.03,10.0,Calm,Calm,-,N/A,,Mostly Cloudy,0,2013-07-11 02:15:00
10:35 PM,77.0,73.4,89,30.04,10.0,Calm,Calm,-,N/A,,Mostly Cloudy,0,2013-07-11 02:35:00
10:55 PM,77.0,75.2,94,30.05,10.0,Calm,Calm,-,N/A,,Mostly Cloudy,0,2013-07-11 02:55:00
11:15 PM,77.0,73.4,89,30.05,10.0,Calm,Calm,-,N/A,,Mostly Cloudy,0,2013-07-11 03:15:00
11:35 PM,77.0,73.4,89,30.05,10.0,Calm,Calm,-,N/A,Thunderstorm,Thunderstorm,0,2013-07-11 03:35:00
11:55 PM,77.0,73.4,89,30.05,8.0,East,4.6,-,N/A,Rain-Thunderstorm,Light Rain,90,2013-07-11 03:55:00